{"data":{"norad_id":63913,"intl_designator":"2025-095Z","name":"STARLINK-34070","alt_names":[],"object_type":"PAYLOAD","status":"ACTIVE","operator":null,"country":"US","launch_date":"2025-05-10","launch_site_code":"AFETR","launch_vehicle":null,"mission":null,"orbit_class":"UNKNOWN","rcs_meters":null,"size_class":null,"mass_kg":null,"dimensions":null,"purposes":["comms"],"wikipedia_slug":null,"has_3d_model":false,"image_url":null,"decayed_at":null,"tle_current":{"epoch":"2026-09-20T01:18:37.743264Z","epoch_age_seconds":185610,"freshness":"STALE","line1":"1 63913U 25095Z   26263.05460351  .00013647  00000+0  50433-3 0  9994","line2":"2 63913  43.0000 158.5193 0001583 260.7157  99.3516 15.27592802 77501","mean_motion":15.27592802,"eccentricity":0.0001583,"inclination_deg":43,"raan_deg":158.5193,"arg_perigee_deg":260.7157,"mean_anomaly_deg":99.3516,"bstar":0.00050433,"rev_number":7750,"period_min":94.265958710638,"perigee_km":481.92464282307,"apogee_km":484.09688220468,"semimajor_km":6861.1477625139,"source":"CELESTRAK","updated_at":"2026-09-21T09:00:35.147742Z"}}}